Regional Weather Roundup
Issued by NWS Albany, NY

Home | Current Version | Previous Version | Text Only | Print | Product List | Glossary On
Versions: 1 2 3 4 5 6 7 8 9 10 11 12 13 14 15 16 17 18 19 20 21 22 23 24 25 26 27 28 29 30 31 32 33 34 35 36 37 38 39 40 41 42 43 44 45 46 47 48 49 50
000
ASUS41 KALY 301010
RWRALY

NEW YORK STATE HOURLY WEATHER ROUNDUP
NATIONAL WEATHER SERVICE ALBANY NY
600 AM EDT SAT AUG 30 2014

NOTE: "FAIR" INDICATES FEW OR NO CLOUDS BELOW 12,000 FEET WITH NO
SIGNIFICANT WEATHER AND/OR NO OBSTRUCTIONS TO VISIBILITY.

NYZ032-033-038>043-046>054-057>066-NYZ062>081-301100-
EAST


CITY           SKY/WX    TMP DP  RH WIND       PRES   REMARKS
ALBANY         PTCLDY    57  53  86 S5        30.26R
GLENS FALLS    CLEAR     53  50  89 CALM      30.24S
POUGHKEEPSIE   CLEAR     53  51  93 W3        30.27R
NEWBURGH       CLEAR     54  54 100 CALM      30.29
MONTGOMERY     CLEAR     50  48  93 CALM      30.28R
WHITE PLAINS   PTCLDY    59  56  89 CALM      30.27R
ISLIP          MOCLDY    62  58  86 CALM      30.27R
NEW YORK CITY  MOCLDY    68  55  63 CALM      30.26S
CENTRAL PARK   MOCLDY    68  55  63 VRB3      30.30R
$$

NYZ005>009-017-018-044>046-055-056-301100-
CENTRAL


CITY           SKY/WX    TMP DP  RH WIND       PRES   REMARKS
FULTON         PTCLDY    59  54  83 VRB5      30.14R
SYRACUSE       PTCLDY    59  54  83 E6        30.14F
ROME           PTCLDY    56  53  90 SE7       30.20S
ELMIRA         CLEAR     52  51  97 CALM      30.18R
BINGHAMTON     CLEAR     55  53  93 S7        30.21F
MONTICELLO     PTCLDY    48  48 100 CALM      30.29S
$$

NYZ026>034-041>043-301100-
NORTH


CITY           SKY/WX    TMP DP  RH WIND       PRES   REMARKS
WATERTOWN      MOCLDY    64  52  64 S6        30.11S
FORT DRUM      NOT AVBL
MASSENA        PTCLDY    57  55  93 S3        30.12S
SARANAC LAKE   PTCLDY    46  44  93 CALM      30.18S
PLATTSBURGH    PTCLDY    54  54 100 CALM      30.16S
$$

NYZ001>004-010>016-019>021-301100-
WEST


CITY           SKY/WX    TMP DP  RH WIND       PRES   REMARKS
NIAGARA FALLS  CLEAR     64  56  75 S5        30.05F
BUFFALO        PTCLDY    62  53  72 SE7       30.07F
DUNKIRK        CLEAR     68  56  65 S20G31    30.06S
JAMESTOWN      CLEAR     57  54  88 S10       30.13S
WELLSVILLE     CLEAR     60  52  74 S6        30.18S
ROCHESTER      PTCLDY    58  54  86 SW3       30.10S
PENN YAN       CLEAR     62  53  72 SW12      30.15S
$$

             KEY
       WCI = WIND CHILL INDEX
       VSB = VISIBILITY
       HX  = HEAT INDEX
$$


USA.gov is the U.S. government's official web portal to all federal, state and local government web resources and services.